Tracking 32938 objects as of 13-Jan-2026
HD Live streaming from Space Station
objects crossing your sky now

ONEWEB-0188

Track ONEWEB-0188 now!
10-day predictions
ONEWEB-0188 is classified as:


NORAD ID: 48231
Int'l Code: 2021-031X
Perigee: 1,211.6 km
Apogee: 1,214.3 km
Inclination: 87.9 °
Period: 109.5 minutes
Semi major axis: 7583 km
RCS: Unknown
Launch date: April 25, 2021
Source: United Kingdom (UK)
Launch site: VOSTOCHNY COSMODROME (VOSTO)
Your satellite tracking list
Your tracking list is empty




NASA's NSSDC Master Catalog

Two Line Element Set (TLE):
1 48231U 21031X   26013.23330815  .00000182  00000-0  45652-3 0  9998
2 48231  87.9016 320.6169 0001765  80.2978 279.8351 13.14503347227783
Source of the keplerian elements: AFSPC